Weather History for KWST - May, 2013

Change the Weather History Date:

Saturday, May 25, 2013

  Actual Average (KGON) Record (KGON)
Temperature  
Mean Temperature 48 °F -  
Max Temperature 52 °F 66 °F 89 °F (1991)
Min Temperature 44 °F 49 °F 38 °F (1963)
Degree Days  
Heating Degree Days 17    
Moisture  
Dew Point 44 °F    
Average Humidity 87    
Maximum Humidity 100    
Minimum Humidity 71    
Precipitation  
Precipitation 0.01 in - - ()
Sea Level Pressure  
Sea Level Pressure 29.78 in    
Wind  
Wind Speed 9 mph (NW)    
Max Wind Speed 20 mph    
Max Gust Speed 33 mph    
Visibility 7 miles    
Events Rain    
Averages and records for this station are not official NWS values.
T = Trace of Precipitation, MM = Missing Value Source: NWS Daily Summary

Daily Weather History Graph

Daily Weather History Graph

Search for Another Location

Airport or City:

Trip Planner

Search our weather history database for the weather conditions in past years. The results will help you decide how hot, cold, wet, or windy it might be!

Date:

Astronomy

May. 25, 2013 Rise Set
Actual Time 5:20 AM EDT 8:08 PM EDT
Civil Twilight 4:47 AM EDT 8:41 PM EDT
Nautical Twilight 4:06 AM EDT 9:22 PM EDT
Astronomical Twilight 3:19 AM EDT 10:09 PM EDT
Moon 8:53 PM EDT (5/25) 5:44 AM EDT (5/25)
Length of Visible Light 15h 53m
Length of Day
14h 48m
Full, 100% of the Moon is Illuminated
May 25
Full
May 31
Last Quarter
Jun 8
New
Jun 16
First Quarter
Jun 23
Full

Hourly Weather History & Observations

Time (EDT) Temp. Windchill Dew Point Humidity Pressure Visibility Wind Dir Wind Speed Gust Speed Precip Events Conditions
12:53 AM 48.0 °F - 46.0 °F 93% 29.79 in 10.0 mi NNW 13.8 mph 21.9 mph 0.00 in Rain Light Rain
1:53 AM 48.9 °F - 46.0 °F 90% 29.77 in 10.0 mi NNW 10.4 mph 20.7 mph 0.00 in   Mostly Cloudy
2:40 AM 48.2 °F - 46.4 °F 93% 29.75 in 10.0 mi NW 8.1 mph - N/A   Overcast
2:53 AM 48.0 °F - 46.0 °F 93% 29.77 in 10.0 mi NW 6.9 mph - N/A   Overcast
3:53 AM 48.0 °F - 46.0 °F 93% 29.78 in 5.0 mi NNW 6.9 mph - 0.00 in Rain Light Rain
4:12 AM 48.2 °F - 46.4 °F 93% 29.78 in 6.0 mi NNW 4.6 mph - 0.00 in Rain Light Rain
4:41 AM 48.2 °F - 46.4 °F 93% 29.77 in 6.0 mi NNW 8.1 mph - 0.00 in Rain Light Rain
4:53 AM 48.0 °F - 46.0 °F 93% 29.76 in 4.0 mi North 11.5 mph - 0.00 in Rain Light Rain
5:09 AM 48.2 °F - 46.4 °F 93% 29.76 in 5.0 mi North 8.1 mph - 0.00 in Rain Light Rain
5:22 AM 48.2 °F - 46.4 °F 93% 29.76 in 7.0 mi NNW 8.1 mph - 0.00 in Rain Light Rain
5:45 AM 48.2 °F - 46.4 °F 93% 29.77 in 9.0 mi NW 3.5 mph - 0.00 in   Overcast
5:53 AM 48.0 °F - 46.9 °F 96% 29.77 in 10.0 mi Variable 4.6 mph - 0.00 in   Overcast
6:10 AM 48.2 °F - 46.4 °F 93% 29.78 in 4.0 mi NW 5.8 mph - 0.00 in Rain Light Rain
6:17 AM 48.2 °F - 46.4 °F 93% 29.78 in 2.5 mi NNW 5.8 mph - 0.00 in Rain Light Rain
6:25 AM 48.2 °F - 46.4 °F 93% 29.78 in 2.0 mi NNW 6.9 mph - 0.01 in Rain Light Rain
6:33 AM 48.2 °F - 46.4 °F 93% 29.77 in 3.0 mi NNW 5.8 mph - 0.01 in Rain Light Rain
6:53 AM 48.9 °F - 46.9 °F 93% 29.78 in 4.0 mi Calm Calm - 0.01 in   Overcast
7:33 AM 48.2 °F - 46.4 °F 93% 29.78 in 6.0 mi NNW 5.8 mph - N/A   Overcast
7:53 AM 48.9 °F - 46.9 °F 93% 29.78 in 4.0 mi NNW 5.8 mph - 0.00 in Rain Light Rain
8:06 AM 48.2 °F - 48.2 °F 100% 29.78 in 3.0 mi NNW 5.8 mph - 0.00 in Rain Light Rain
8:28 AM 48.2 °F - 46.4 °F 93% 29.77 in 4.0 mi NNW 9.2 mph - 0.00 in   Overcast
8:53 AM 50.0 °F - 48.0 °F 93% 29.78 in 6.0 mi NNW 11.5 mph 17.3 mph 0.00 in   Overcast
9:20 AM 50.0 °F - 46.4 °F 87% 29.77 in 5.0 mi NNW 11.5 mph - N/A   Overcast
9:25 AM 50.0 °F - 48.2 °F 94% 29.77 in 5.0 mi NNW 12.7 mph - N/A   Overcast
9:49 AM 50.0 °F - 46.4 °F 87% 29.77 in 5.0 mi NNW 9.2 mph - N/A   Overcast
9:53 AM 50.0 °F - 48.0 °F 93% 29.77 in 5.0 mi NW 8.1 mph - N/A   Overcast
10:45 AM 50.0 °F - 48.2 °F 94% 29.77 in 3.0 mi Variable 5.8 mph - 0.00 in Rain Light Rain
10:53 AM 50.0 °F - 46.9 °F 89% 29.77 in 3.0 mi NW 8.1 mph - 0.00 in Rain Light Rain
11:17 AM 50.0 °F - 46.4 °F 87% 29.76 in 5.0 mi NW 6.9 mph - 0.00 in   Overcast
11:26 AM 51.8 °F - 48.2 °F 88% 29.76 in 6.0 mi NW 6.9 mph 16.1 mph 0.00 in   Overcast
11:53 AM 52.0 °F - 48.0 °F 86% 29.76 in 8.0 mi NW 6.9 mph 17.3 mph 0.00 in Rain Light Rain
12:17 PM 51.8 °F - 48.2 °F 88% 29.75 in 4.0 mi Variable 5.8 mph 19.6 mph 0.00 in Rain Light Rain
12:43 PM 51.8 °F - 46.4 °F 82% 29.75 in 10.0 mi NW 10.4 mph 20.7 mph 0.00 in   Overcast
12:53 PM 51.1 °F - 46.0 °F 83% 29.75 in 10.0 mi NNW 8.1 mph 20.7 mph 0.00 in   Overcast
1:53 PM 48.9 °F - 46.0 °F 90% 29.76 in 4.0 mi NW 12.7 mph 18.4 mph 0.00 in Rain Light Rain
2:03 PM 50.0 °F - 46.4 °F 87% 29.75 in 6.0 mi Variable 6.9 mph 16.1 mph 0.00 in Rain Light Rain
2:17 PM 50.0 °F - 44.6 °F 82% 29.75 in 8.0 mi NW 8.1 mph 23.0 mph 0.00 in Rain Light Rain
2:53 PM 50.0 °F - 45.0 °F 83% 29.75 in 10.0 mi NW 9.2 mph 25.3 mph 0.00 in Rain Light Rain
3:16 PM 50.0 °F - 44.6 °F 82% 29.75 in 10.0 mi NW 9.2 mph 24.2 mph 0.00 in Rain Light Rain
3:48 PM 50.0 °F - 44.6 °F 82% 29.75 in 10.0 mi NW 17.3 mph 27.6 mph 0.00 in Rain Light Rain
3:53 PM 50.0 °F - 43.0 °F 77% 29.75 in 10.0 mi NW 10.4 mph 28.8 mph 0.00 in Rain Light Rain
4:53 PM 48.9 °F - 43.0 °F 80% 29.76 in 10.0 mi NW 13.8 mph 25.3 mph 0.00 in   Overcast
5:53 PM 48.0 °F - 39.9 °F 74% 29.77 in 10.0 mi NNW 19.6 mph 33.4 mph 0.00 in   Overcast
6:53 PM 46.9 °F - 39.9 °F 77% 29.78 in 10.0 mi NW 12.7 mph 27.6 mph 0.00 in Rain Light Rain
7:00 PM 46.4 °F 41.9 °F 39.2 °F 76% 29.78 in 10.0 mi NW 9.2 mph 21.9 mph 0.00 in Rain Light Rain
7:40 PM 46.4 °F 41.1 °F 37.4 °F 71% 29.79 in 10.0 mi NW 11.5 mph 28.8 mph 0.00 in Rain Light Rain
7:53 PM 45.0 °F 39.7 °F 39.0 °F 80% 29.80 in 10.0 mi NW 10.4 mph 19.6 mph 0.00 in Rain Light Rain
8:07 PM 44.6 °F 39.7 °F 39.2 °F 81% 29.80 in 10.0 mi NW 9.2 mph 24.2 mph 0.00 in Rain Light Rain
8:39 PM 44.6 °F 39.7 °F 39.2 °F 81% 29.80 in 10.0 mi NW 9.2 mph 24.2 mph 0.00 in Rain Light Rain
8:53 PM 45.0 °F 38.9 °F 39.0 °F 80% 29.81 in 10.0 mi WNW 12.7 mph 23.0 mph 0.00 in   Overcast
9:20 PM 44.6 °F 39.2 °F 39.2 °F 81% 29.82 in 10.0 mi WNW 10.4 mph - N/A   Overcast
9:51 PM 44.6 °F 40.2 °F 37.4 °F 76% 29.82 in 10.0 mi WNW 8.1 mph 17.3 mph N/A   Overcast
9:53 PM 45.0 °F 41.8 °F 37.9 °F 76% 29.82 in 10.0 mi Variable 5.8 mph 17.3 mph N/A   Overcast
10:23 PM 44.6 °F 40.7 °F 37.4 °F 76% 29.82 in 10.0 mi WNW 6.9 mph - N/A   Overcast
10:53 PM 44.1 °F 38.6 °F 37.9 °F 79% 29.83 in 10.0 mi WNW 10.4 mph 20.7 mph N/A   Overcast
11:53 PM 44.1 °F 40.8 °F 37.9 °F 79% 29.82 in 10.0 mi Variable 5.8 mph 16.1 mph N/A   Overcast